Regional Weather Roundup
Issued by NWS Upton, NY

Current Version | Previous Version | Graphics & Text | Print | Product List | Glossary Off
Versions: 1 2 3 4 5 6 7 8 9 10 11 12 13 14 15 16 17 18 19 20 21 22 23 24 25 26 27

000
ASUS41 KOKX 201405
RWROKX

Regional Weather Roundup
National Weather Service New York NY
1000 AM EDT FRI APR 20 2018

Note: "FAIR" indicates few or no clouds below 12,000 feet with no
significant weather and/or obstructions to visibility.

NYZ071-072-176-178-NJZ106-104-201500-
New York City Metro Area

CITY           SKY/WX    TMP DP  RH WIND       PRES   REMARKS
Central Park   FAIR      41  22  46 NW8G28    30.17R
Bronx Bot Gard   N/A     41  23  48 NW6       30.16R
Bronx Lehman C   N/A     41  23  48 NW13G26     N/A
LaGuardia Arpt FAIR      42  24  49 NW18G26   30.15R
Queens College   N/A     39  25  56 NW14        N/A  WCI  31
Kennedy Intl   FAIR      43  24  47 NW24G30   30.16R
Breezy Point     N/A     39 N/A N/A NW17G25     N/A  WCI  30
Brooklyn Coll    N/A     39  23  52 NW16G29     N/A  WCI  30
Staten Island    N/A     39  21  48 NW17        N/A  WCI  30
Newark/Liberty FAIR      44  22  41 NW20G31   30.17R
Teterboro      FAIR      41  23  48 N21G38    30.16R
$$

NYZ177-179-078>081-201500-
Long Island New York

CITY           SKY/WX    TMP DP  RH WIND       PRES   REMARKS
Jones Beach      N/A     41 N/A N/A NW20G25     N/A
Wantagh          N/A     41  23  48 NW17        N/A
Hempstead        N/A     43  27  52 NW12      30.16S
Matinecock Pt    N/A     41 N/A N/A NW22        N/A
Farmingdale    FAIR      43  23  45 N13G26    30.13R
MacArthur/ISP  FAIR      43  23  45 N20G30    30.11R
Stony Brook      N/A     41  25  52 N12         N/A
Shirley        FAIR      42  26  53 NW21G28   30.12R
Mt Sinai Harb    N/A     41 N/A N/A NW9G16      N/A
Westhampton    FAIR      42  23  46 NW26G36   30.10R
East Hampton   FAIR      41  25  53 NW9G23    30.07S
Southold         N/A     41  28  60 NW17        N/A
Montauk          N/A     43  26  51 NW15G23   30.08R
$$

NYZ052-065-067-201500-
Hudson Valley

CITY           SKY/WX    TMP DP  RH WIND       PRES   REMARKS
White Plains   FAIR      41  22  46 NW21G28   30.11R
Larchmont Harb   N/A     39 N/A N/A W23G31      N/A  WCI  29
Croton On Huds   N/A     41 N/A N/A SW22G28     N/A
Somers           N/A     39  25  56 NW12G23     N/A  WCI  32
Brewster         N/A     37  25  60 NW12        N/A  WCI  30
Newburgh       MOSUNNY   41  25  52 NW14      30.16R
Montgomery     FAIR      39  24  55 NW14G25   30.15R WCI  31
Otisville        N/A     36  23  60 NW10G23     N/A  WCI  28
Warwick          N/A     37  25  60 NW14        N/A  WCI  29
Suffern          N/A     37  25  60 NW13        N/A  WCI  29
Poughkeepsie   PTSUNNY   40  22  48 NW17      30.15R WCI  31
Albany         PTSUNNY   37  21  52 W17       30.16R WCI  27
$$

NJZ001-105-106-008-010-013-015-019>022-104-201500-
New Jersey

CITY           SKY/WX    TMP DP  RH WIND       PRES   REMARKS
Newark/Liberty FAIR      44  22  41 NW20G31   30.17R
Teterboro      FAIR      41  23  48 N21G38    30.16R
Caldwell       FAIR      40  21  46 NW14G23   30.18R WCI  32
Somerville     FAIR      41  23  48 NW17G26   30.18R
Linden         FAIR      42  22  44 N15G23    30.19R
Perth Amboy      N/A     39 N/A N/A NW20G28     N/A  WCI  30
Sussex         PTSUNNY   37  21  52 NW17G24   30.18R WCI  27
Andover          N/A     38  21  50 N14G25    30.19R WCI  30
Trenton        FAIR      41  21  44 NW14G25   30.20R
Millville      FAIR      43  22  43 NW17G24   30.22S
Atlantic City  FAIR      45  23  42 NW14G28   30.20R
Wrightstown    FAIR      42  22  44 N15G23    30.18
Toms River     FAIR      42  22  44 NW18G31   30.19R
Belmar         FAIR      43  23  45 NW16G23   30.18R
$$

PAZ047>061-062-071-201500-
Eastern Pennsylvania

CITY           SKY/WX    TMP DP  RH WIND       PRES   REMARKS
Philadelphia   FAIR      43  21  41 NW15G24   30.24R
Allentown      FAIR      41  21  44 N17       30.22R
Scranton       CLOUDY    34  21  59 N16G24    30.23R WCI  24
$$

CTZ002-004>006-009-010-012-RIZ004-006-007-MAZ004-011-015-201500-
Southern New England

 In CT

CITY           SKY/WX    TMP DP  RH WIND       PRES   REMARKS
Bradley Intl   FAIR      43  24  47 NW17G28   30.08R
Hartford       FAIR      44  25  47 NW14G22   30.09R
Danbury        FAIR      39  23  52 NW10G22   30.12R WCI  32
Wtrbury/Oxford FAIR      38  23  55 NW13G26   30.09R WCI  30
Norwalk Harbor   N/A     39 N/A N/A NW21G29     N/A  WCI  29
Bridgeport     FAIR      42  23  46 NW20G29   30.11R
Meriden        FAIR      42  23  46 NW14G25   30.10R
New Haven      FAIR      42  23  46 NW17G30   30.09R
Chester        FAIR      43  23  45 NW18G25   30.06R
Groton         FAIR      43  25  49 NW18G29   30.05R
Willimantic    FAIR      42  25  50 NW14G23   30.06R

 In RI

CITY           SKY/WX    TMP DP  RH WIND       PRES   REMARKS
Providence     FAIR      43  27  53 NW18G29   30.02R
Block Island   FAIR      42  27  55 NW12G22   30.05R
Westerly       FAIR      44  26  49 NW9G23    30.05R

In MA

CITY           SKY/WX    TMP DP  RH WIND       PRES   REMARKS
Boston         PTSUNNY   43  26  51 NW16G24   29.99R
Worcester      PTSUNNY   37  23  56 NW24G31   29.99R WCI  26
Westfield      FAIR      41  24  51 NW20G29   30.07R
Provincetown   FAIR      42  30  62 NW18G30   29.98R
Nantucket      FAIR      43  31  62 NW17      29.99R
$$

ANZ330-335-338-340-345-350-353-355-201500-
Coastal Marine Observations


STATION/POSITION TIME  SKY/WX   TEMP    WIND        PRES    VSBY  WAVE
                                AIR SEA DIR/SP/G                  HT/PER
                 (UTC)          (F)     (DEG/KT/KT) (MB)    (MI)  (FT/S)
NY Harb Entrance 1350            39 44  320/ 19/ 25 1021.3          4/ 4
20 S Fire Island 1350            40 42  310/ 19/ 23 1020.3          5/ 5
23 SSW Montauk P 1350            38 42  290/ 19/ 23 1018.5          5/ 6
15 E Barnegat Li 1330               44                N/A           5/ 5
Hudson Canyon    1350            40 44  320/ 19/ 23 1020.1          8/ 7
Kings Point      1348               44  350/ 17/ 22 1021.9
Execution Rocks  NOT AVBL
Western LI Sound NOT AVBL
Central LI Sound 1345            40     320/ 19/ 23   N/A           3
Robbins Reef     1348            39     320/ 17/ 27 1021.7
$$


>>>>>>>>>>>>>>>>>>>>>>>>>>>> KEY <<<<<<<<<<<<<<<<<<<<<<<<<<<
>                                                          <
>     SKY/WX - Sky Condition/Present Weather               <
>     TMP    - Temperature in Fahrenheit                   <
>     DP     - Dew Point in Fahrenheit                     <
>     RH     - Relative Humidity in Percent                <
>     WIND   - Direction (from) and Speed in MPH           <
>     PRES   - Mean Sea Level Pressure (inches of Hg)      <
>     WCI    - Wind Chill Index                            <
>     VSB    - Visibility in Miles                         <
>     HX     - Heat Index                                  <
>     TC     - Temperature in Celsius                      <
>     VRB    - Varibale Wind Direction                     <
>                                                          <
>>>>>>>>>>>>>>>>>>>>>>>>>>>> KEY <<<<<<<<<<<<<<<<<<<<<<<<<<<




USA.gov is the U.S. government's official web portal to all federal, state and local government web resources and services.